Weather in Blagoveshchenka

Kazakhstan     54˚22′08″N   66˚58′23″E
temp.,
°C
wind,
m/s
gust,
m/s
humid.,
%
clouds,
%
prec.,
mm/h
press.,
hPa
HPBL,
m
1 december, tue
tue100:00−18˚ene22950 0.0 105436
03:00−19˚ese22950 0.0 105326
06:00−18˚e11930 0.0 105420
09:00−18˚e23930 0.0 105343
12:00−16˚ese23890 0.0 1054111
15:00−15˚e23880 0.0 1053163
18:00−17˚e33930 0.0 105372
21:00−17˚ese34930 0.0 105280
2 december, wed
wed200:00−17˚ese33920 0.0 105153
03:00−17˚e23910 0.0 105044
06:00−16˚e23900 0.0 105037
09:00−16˚e33900 0.0 104855
12:00−14˚ese34900 0.0 1048123
15:00−12˚e34890 0.0 1045119
18:00−14˚e34920 0.0 104469
21:00−14˚ene359327 0.0 104391
3 december, thu
thu300:00−15˚ene369164 0.0 1042114
03:00−15˚e3691100 0.0 1041125
06:00−16˚ene369160 0.0 1041122
09:00−17˚ene47910 0.0 1040136
12:00−15˚ene478819 0.0 1040216
15:00−14˚ene4786100 0.0 1040236
18:00−15˚ene4889100 0.0 1039195
21:00−16˚ene478998 0.0 1039182
4 december, fri
fri400:00−17˚ene369056 0.0 1039128
03:00−17˚ene34900 0.0 103993
06:00−18˚ne34890 0.0 103881
09:00−18˚ne23890 0.0 103950
12:00−16˚ne23850 0.0 1039106
15:00−15˚nne23850 0.0 1039123
18:00−16˚nne22850 0.0 103920
21:00−17˚ne12830 0.0 104020
5 december, sat
sat500:00−17˚nne11820 0.0 104020
03:00−17˚n11820 0.0 104020
06:00−17˚n12820 0.0 104020
09:00−17˚n11820 0.0 104120
12:00−15˚nw01800 0.0 104142
15:00−14˚nw11820 0.0 104158
18:00−15˚n12840 0.0 104120
21:00−16˚n11850 0.0 104120